Location: Indian Springs
(36.5700°N, 115.6700°W)
Time: 20:41:14
(UTC-08:00)

Daily predictions for brighter satellites

Satellite Brightness Start Highest point End
(mag) Time Altitude Azimuth Time Altitude Azimuth Time Altitude Azimuth
Cosmos 841 Rocket 3.5 17:13:02 10° SSW 17:18:17 79° ESE 17:23:35 10° NNE
Molniya-1 4.2 17:17:59 10° SW 17:20:22 57° NW 17:24:21 10° NNE
MOS 1 4.4 17:18:10 10° SSE 17:23:49 89° WSW 17:29:31 10° NNW
NOSS 0 Rocket 4.2 17:18:22 10° S 17:24:18 49° ESE 17:30:15 10° NE
OAO 3 Rocket 4.0 17:24:48 10° W 17:29:33 50° SSW 17:34:13 10° ESE
Cosmos 2084 3.2 17:26:23 10° SSW 17:30:18 68° ESE 17:34:07 10° NE
SMAP 3.5 17:25:48 10° S 17:30:25 69° WSW 17:35:04 10° NNW
Abrixas rocket 3.0 17:27:52 10° WNW 17:31:07 54° SW 17:34:22 10° SE
Cosmos 1937 Rocket 4.1 17:26:15 10° NNW 17:31:23 63° WSW 17:36:32 10° S
Cosmos 1328 3.9 17:31:18 10° S 17:35:07 51° E 17:38:58 10° NNE
Aureole 2 Rocket 3.9 17:33:06 10° SSE 17:35:48 21° E 17:38:34 11° NE
Meteor 1-28 Rocket 3.8 17:32:29 10° NNE 17:35:55 34° E 17:39:19 10° SSE
CENTAUR R/B 3.3 17:30:29 10° SW 17:36:18 49° NW 17:42:51 10° NNE
Cosmos 44 Rocket 3.4 17:31:49 10° SSW 17:36:58 84° ESE 17:42:03 10° NNE
Lacrosse 5 4.2 17:37:08 10° NW 17:38:55 12° NNW 17:40:41 10° N
YAOGAN 1 3.2 17:35:13 10° S 17:39:29 61° W 17:43:46 10° NNW
COSMO-SKYMED 1 2.5 17:36:26 10° NNE 17:40:45 67° ESE 17:45:03 10° S
Cosmos 1844 Rocket 2.7 17:36:13 10° NNW 17:41:55 85° ENE 17:47:32 10° SSE
CZ-2C R/B 3.7 17:37:05 10° S 17:41:55 46° W 17:46:39 10° NNW
Meteor 2-2 Rocket 4.2 17:36:28 10° N 17:42:08 83° E 17:47:46 10° S
Cosmos 2228 Rocket 3.5 17:42:32 10° NNW 17:46:56 68° W 17:51:20 10° S
SJ-6B 3.9 17:44:54 10° SE 17:48:10 24° ENE 17:51:30 10° NNE
Cosmos 1980 3.7 17:48:55 10° SSW 17:54:35 78° ESE 18:00:16 10° NNE
Cosmos 2058 3.0 17:51:38 10° SSE 17:55:36 50° E 17:59:35 10° NNE
H-2A ROCKET BODY 4.3 17:19:24 10° WSW 17:56:21 53° S 18:02:29 13° ESE
Cosmos 2279 Rocket 4.1 17:52:15 10° N 17:58:17 51° E 18:04:18 10° SSE
Cosmos 1703 3.9 17:59:21 10° SSE 18:02:49 32° E 18:04:47 20° NE
Cosmos 304 Rocket 4.3 17:59:12 10° SSE 18:03:37 38° ESE 18:06:43 18° NE
FENGYUN 3A 4.5 18:01:23 10° ESE 18:05:45 26° ENE 18:10:08 10° NNE
Cosmos 2333 Rocket 2.5 18:01:37 10° SSW 18:07:13 68° WNW 18:12:53 10° NNE
Atlas Centaur 2 4.0 18:08:03 10° WSW 18:11:32 19° SSW 18:14:34 10° SSE
Nadezhda 4 Rocket 4.3 18:10:26 10° SSE 18:16:11 41° E 18:22:01 10° NNE
Cosmos 2180 Rocket 4.5 18:10:26 10° N 18:16:31 59° E 18:22:37 10° SSE
Cosmos 372 Rocket 3.9 18:11:30 10° N 18:16:33 61° ENE 18:21:34 10° SSE
Meteor 2-10 3.9 18:12:17 10° N 18:17:21 70° E 18:22:34 10° SSE
Cosmos 1340 Rocket 2.6 18:13:47 10° S 18:17:43 72° E 18:21:05 14° NNE
METEOR-M 4.0 18:12:36 10° SSE 18:17:53 66° ENE 18:23:12 10° N
Abrixas 2.3 18:15:26 10° SW 18:18:21 86° NNW 18:18:50 59° NE
Cosmos 1356 Rocket 3.8 18:16:01 10° SSE 18:19:41 36° E 18:19:50 36° E
Cosmos 2219 Rocket 3.4 18:15:09 10° SW 18:20:25 40° WNW 18:25:43 10° N
Cosmos 2151 3.7 18:17:47 10° SSW 18:21:54 52° W 18:26:01 10° N
Meteor 1-27 4.2 18:19:49 10° N 18:25:39 86° E 18:31:30 10° S
SL-14 R/B 4.4 18:22:35 10° SSW 18:26:18 44° W 18:30:06 10° N
Cosmos 540 Rocket 4.1 18:21:22 10° SSW 18:26:27 57° WNW 18:31:33 10° N
Cosmos 1626 2.2 18:23:48 10° SSE 18:27:22 49° E 18:27:22 49° E
Cosmos 2278 Rocket 2.1 18:22:54 10° NNW 18:28:37 90° ENE 18:34:17 10° SSE
Cosmos 1805 Rocket 3.4 18:26:10 10° S 18:30:36 78° E 18:34:22 14° N
Cosmos 1092 Rocket 4.3 18:27:44 10° SSE 18:33:33 41° E 18:36:36 25° NE
OAO 1 Rocket 4.4 18:29:20 10° W 18:34:39 76° S 18:36:34 40° ESE
Cosmos 1151 Rocket 4.4 18:31:17 10° NNW 18:35:16 38° W 18:39:14 10° SSW
USA 215 3.2 18:32:58 12° SE 18:39:09 85° NE 18:45:44 10° NW
Aureole 1 Rocket 4.2 18:38:46 10° SSE 18:42:14 36° SE 18:42:14 36° SE
ALOS 2.1 18:41:53 10° SSE 18:46:30 65° ENE 18:51:08 10° N
Timation 1 Rocket 4.2 18:44:16 10° NNW 18:50:17 70° ENE 18:53:51 25° SE
Cosmos 2237 Rocket 3.5 18:46:06 10° SW 18:51:16 37° WNW 18:56:30 10° N
Milstar 3 4.1 18:46:34 10° WSW 18:52:24 33° SSW 18:57:25 17° SE
Hubble Space Telescope 3.6 18:51:17 10° SW 18:52:28 11° SSW 18:53:38 10° S
FREGAT/IRIS 4.1 18:50:15 10° S 18:57:40 - NNW 18:52:44 37° WSW
OTV 4 2.4 18:50:15 10° W 18:51:57 29° W 18:51:57 29° W
Spot 2 Rocket 3.3 18:48:36 10° SSE 18:53:36 70° ENE 18:58:38 10° N
Sich 1 3.0 18:49:58 10° S 18:54:24 88° W 18:55:02 66° N
SL-16 R/B 2.2 18:50:08 10° SSW 18:55:47 83° WNW 18:58:16 35° NNE
Lacrosse 5 rocket 2.7 18:53:13 10° NNW 18:55:10 28° NNW 18:55:10 28° NNW
Cosmos 1633 Rocket 3.0 18:53:14 10° S 18:57:15 74° S 18:57:15 74° S
Cosmos 1538 Rocket 4.0 18:56:26 10° SSW 19:01:42 83° WNW 19:03:08 50° N
Resurs 01 Rocket 3.1 19:09:28 28° NNW 19:09:28 28° NNW 19:11:37 10° NNW
Cosmos 2297 3.6 19:02:03 10° NNW 19:07:47 88° ENE 19:09:08 55° SSE
Intelsat 5-1 Rocket 4.4 19:12:18 10° SW 19:14:33 18° S 19:14:33 18° S
USA 229 DEB 3.5 19:12:34 10° SSW 19:19:18 71° ESE 19:19:18 71° ESE
USA 229 3.6 19:12:41 10° SSW 19:19:21 70° SE 19:19:21 70° SE
Cosmos 1461 4.5 19:20:34 10° SW 19:23:33 33° W 19:23:33 33° W
